Regional Weather Roundup
Issued by NWS Little Rock, AR

Home | Current Version | Previous Version | Graphics & Text | Print | Product List | Glossary On
Versions: 1 2 3 4 5 6 7 8 9 10 11 12 13 14 15 16 17 18 19 20 21 22 23 24 25 26 27 28 29 30 31 32 33 34 35 36 37 38 39
000
ASUS44 KLZK 252305
RWRLZK

WEATHER ROUNDUP FOR ARKANSAS
NATIONAL WEATHER SERVICE LITTLE ROCK AR
500 PM CST THU DEC 25 2014

NOTE: "FAIR" INDICATES FEW OR NO CLOUDS BELOW 12,000 FEET WITH NO
SIGNIFICANT WEATHER AND/OR OBSTRUCTIONS TO VISIBILITY.

ARZ001-003-010-029-260000-
NORTHWEST ARKANSAS

CITY           SKY/WX    TMP DP  RH WIND       PRES   REMARKS
FAYETTEVILLE   PTCLDY    49  27  42 S12G20    29.90S
FORT SMITH     CLOUDY    55  28  35 SE8       29.93F
HARRISON       MOCLDY    47  30  51 SE12      29.94S
BENTONVILLE    PTCLDY    50  27  40 S13G22    29.89S
ROGERS         PTCLDY    50  26  39 S17       29.89R
SILOAM SPGS    PTCLDY    50  27  40 S13G22    29.89S
HIGHFILL       PTCLDY    50  27  40 S18G29    29.87S
SPRINGDALE     PTCLDY    50  27  40 S17G35    29.91S
$$

ARZ004-005-016-260000-
NORTH CENTRAL ARKANSAS

CITY           SKY/WX    TMP DP  RH WIND       PRES   REMARKS
BATESVILLE     CLEAR     52  34  50 S8        30.05R
FLIPPIN        PTCLDY    50  28  43 SE7       29.97S
MTN HOME       PTCLDY    48  29  47 S10       29.97R
$$

ARZ040-041-260000-
WEST CENTRAL ARKANSAS

CITY           SKY/WX    TMP DP  RH WIND       PRES   REMARKS
MENA           MOCLDY    54  32  43 SE6       29.98S
MOUNT IDA      PTCLDY    53  32  44 S6        29.98S
$$

ARZ009-017-025-026-028-260000-
NORTHEAST ARKANSAS

CITY           SKY/WX    TMP DP  RH WIND       PRES   REMARKS
CORNING        FAIR      46  37  71 S6        30.08R
JONESBORO      CLEAR     49  38  65 S12       30.08R
NEWPORT        CLEAR     49  40  71 S15       30.08R
WALNUT RIDGE   CLEAR     46  36  66 S12       30.06S
BLYTHEVILLE    CLEAR     48  36  63 S9        30.10F
$$

ARZ022-023-033-042-044-260000-
CENTRAL ARKANSAS

CITY           SKY/WX    TMP DP  RH WIND       PRES   REMARKS
LITTLE ROCK    PTCLDY    53  32  44 S7        30.06R
N LITTLE ROCK  PTCLDY    53  36  53 S8G16     30.06R
JACKSONVILLE   CLEAR     54  33  46 S6        30.05R
SEARCY         CLEAR     51  38  60 S10       30.08R
HOT SPRINGS    PTCLDY    54  32  43 SE6       30.02F
RUSSELLVILLE   MOCLDY    52  33  48 SE3       30.00S
CLINTON        FAIR      50  32  50 S3        30.04R
$$

ARZ036-260000-
EAST ARKANSAS

CITY           SKY/WX    TMP DP  RH WIND       PRES   REMARKS
WEST MEMPHIS   CLEAR     47  36  65 S12       30.10F
$$

ARZ050-053-066-070-073-260000-
SOUTHWEST ARKANSAS

CITY           SKY/WX    TMP DP  RH WIND       PRES   REMARKS
ARKADELPHIA    FAIR      54  40  59 S5        30.05S
CAMDEN         CLEAR     57  30  35 MISG      30.06S
TEXARKANA      CLEAR     56  34  43 S10       30.02S
EL DORADO      CLEAR     54  35  48 S6        30.07S
DE QUEEN       PTCLDY    56  33  42 S7        29.98S
$$

ARZ056-057-069-260000-
SOUTHEAST ARKANSAS

CITY           SKY/WX    TMP DP  RH WIND       PRES   REMARKS
PINE BLUFF     PTCLDY    52  35  52 S8        30.07S
STUTTGART      PTCLDY    52  36  54 S16G23    30.08S
MONTICELLO     CLEAR     53  37  54 S7        30.09S

$$




USA.gov is the U.S. government's official web portal to all federal, state and local government web resources and services.